Terminal Aerodrome Forecast
Issued by NWS

Home | Current Version | Previous Version | Text Only | Print | Product List | Glossary On
Versions: 1 2 3 4 5 6 7 8 9 10 11 12 13 14 15 16 17 18
000
FTUS43 KMPX 241138
TAFRNH
TAF
KRNH 241138Z 2412/2512 14005KT P6SM SCT250
     FM241430 15014G20KT P6SM SCT014 BKN250
      TEMPO 2415/2418 BKN014
     FM241900 15013G20KT P6SM SCT018 BKN150
     FM242300 13009KT P6SM FEW012 OVC090
     FM250300 14007KT 1 1/2SM -SN BR OVC009
      TEMPO 2506/2509 3/4SM -SN VV005
     FM251000 17005KT 3SM -SN BR OVC011=

USA.gov is the U.S. government's official web portal to all federal, state and local government web resources and services.